This demonstration page uses our WeatherBlox Daily Observations layout. Learn more.

Hourly Observations for May 24, 2018

Temp ( °F °C ) Dew Point ( °F °C ) Humidity (%) Winds ( mph kmh ) Pressure ( in mb ) Visibility ( mi km ) Precip ( " mm )
12:54 am 00:54 Clear 75 23.9 64 17.8 69 69 SSE 10 17 29.98 1015 10 16.0934 0 0
1:54 am 01:54 Clear 72 22.2 64 17.8 76 76 S 9 15 29.97 1015 10 16.0934 0 0
2:54 am 02:54 Clear 72 22.2 65 18.3 79 79 S 7 11 29.99 1016 10 16.0934 0 0
3:54 am 03:54 Clear 71 21.7 65 18.3 81 81 SSE 9 15 29.99 1016 10 16.0934 0 0
4:54 am 04:54 Clear 69 20.6 64 17.8 84 84 S 9 15 29.99 1016 10 16.0934 0 0
5:54 am 05:54 Clear 67 19.4 63 17.2 87 87 S 8 13 29.99 1016 10 16.0934 0 0
6:54 am 06:54 Sunny 68 20 64 17.8 87 87 S 9 15 30 1016 9 14.48406 0 0
7:54 am 07:54 Sunny 69 20.6 65 18.3 87 87 S 9 15 30.01 1016 9 14.48406 0 0
8:54 am 08:54 Sunny 73 22.8 66 18.9 79 79 S 8 13 30.02 1017 10 16.0934 0 0
9:54 am 09:54 Sunny 77 25 65 18.3 66 66 S 8 13 30 1016 10 16.0934 0 0
10:54 am 10:54 Sunny 81 27.2 65 18.3 58 58 S 10 17 29.98 1015 10 16.0934 0 0
11:54 am 11:54 Sunny 85 29.4 62 16.7 46 46 S 12 19 29.97 1015 10 16.0934 0 0
12:54 pm 12:54 Sunny 87 30.6 61 16.1 42 42 SSE 13 20 29.95 1014 10 16.0934 0 0
1:54 pm 13:54 Sunny 87 30.6 59 15 39 39 S 20 31 29.93 1014 10 16.0934 0 0
2:54 pm 14:54 Mostly Sunny 88 31.1 63 17.2 43 43 S 20 31 29.91 1013 10 16.0934 0 0
3:54 pm 15:54 Sunny 87 30.6 64 17.8 46 46 S 17 28 29.91 1013 10 16.0934 0 0
4:54 pm 16:54 Sunny 87 30.6 62 16.7 43 43 S 14 22 29.88 1012 10 16.0934 0 0
5:54 pm 17:54 Sunny 86 30 62 16.7 45 45 S 8 13 29.88 1012 10 16.0934 0 0
6:54 pm 18:54 Sunny 85 29.4 66 18.9 53 53 S 8 13 29.86 1011 10 16.0934 0 0
7:54 pm 19:54 Sunny 83 28.3 65 18.3 55 55 S 8 13 29.86 1011 10 16.0934 0 0
8:54 pm 20:54 Clear 82 27.8 62 16.7 51 51 S 14 22 29.86 1011 10 16.0934 0 0
9:54 pm 21:54 Clear 77 25 62 16.7 60 60 S 10 17 29.88 1012 10 16.0934 0 0
10:54 pm 22:54 Clear 73 22.8 62 16.7 69 69 S 8 13 29.89 1012 10 16.0934 0 0
11:54 pm 23:54 Mostly Cloudy 72 22.2 62 16.7 71 71 S 9 15 29.89 1012 10 16.0934 0 0

Powered by AerisWeather